KPHT

Details ICAO KPHT
Name HENRY CO
Region United States
Timezone America/Chicago (UTC-5.0)
Plans Departing 2
Arriving 2
Stats Elevation 580 ft / 177 m (AMSL)
Location 36.339349° -88.382110°
Runways 2
Magnetic Variation 2.670° W
Sunrise 2018-05-26 10:41:14 UTC / 2018-05-26 05:41:14 Local
Sunset 2018-05-27 01:02:50 UTC / 2018-05-26 20:02:50 Local
Advertisement - Login to hide

Runways

ID Width Length Bearing (true) Bearing (mag) Surface Threshold Offset Overrun Length
02 100 ft / 30 m 5,011 ft / 1,527 m 16.29° 18.96° Asphalt 0 ft / 0 m 0 ft / 0 m
13 75 ft / 23 m 2,506 ft / 764 m 127.45° 130.12° Asphalt 190 ft / 58 m 190 ft / 58 m
20 100 ft / 30 m 5,011 ft / 1,527 m 196.30° 198.97° Asphalt 0 ft / 0 m 0 ft / 0 m
31 75 ft / 23 m 2,506 ft / 764 m 307.46° 310.13° Asphalt 290 ft / 88 m 290 ft / 88 m

Map

Weather


0- 5 10 15 20 25 30 35+ Temperature / ° C

Clouds and Precipitation
Forecast for 2018-05-27 00:00 UTC. Updated 3 hours ago

Ground ~20,000 ft ~40,000 ft Winds

METAR

KPHT 270215Z AUTO 14003KT 10SM BKN050 BKN060 24/22 A2988 RMK A01

TAF

Not found

Frequencies

Recorded 118.82 MHz AWOS 3
Unicom 123.00 MHz CTAF/UNICOM
Warning: Do not use this data for real-world aviation or navigation. No guarantee of current accuracy is given.